Location: Unspecified
(58.7730°N, 5.8460°E)
Time: 13:55:20
(UTC+02:00)

CZ-3 Stage 3 - Visible Passes

Search period start: 25 October 2014 00:00
Search period end: 03 November 2014 23:00
Orbit: 416 x 34822 km, 30.9° (Epoch: 24 October)

Date Brightness Start Highest point End Pass type
(mag) Time Alt. Az. Time Alt. Az. Time Alt. Az.
25 Oct 8.5 00:00:00 13° ESE 23:59:45 13° ESE 00:29:15 10° E visible
26 Oct 7.2 02:24:13 10° SW 06:45:09 31° SSW 06:58:10 10° SSE visible
26 Oct 7.7 22:19:29 10° SSE 02:51:23 34° SSE 03:23:28 10° ESE visible
27 Oct 8.4 21:41:33 10° ESE 22:53:39 15° ESE 23:29:34 10° E visible
29 Oct 7.1 02:08:22 10° SW 06:41:19 31° SSW 06:54:19 10° SSE visible
29 Oct 7.7 22:03:59 10° SSE 02:47:54 35° SSE 03:19:51 10° ESE visible
30 Oct 8.4 21:22:25 10° ESE 22:49:17 16° ESE 23:28:39 10° E visible
01 Nov 7.1 01:52:39 10° SW 06:37:21 31° SSW 06:50:20 10° SSE visible
01 Nov 7.7 21:48:40 10° SSE 02:44:16 36° SSE 03:16:06 10° ESE visible
02 Nov 8.3 21:03:59 10° ESE 22:44:48 18° ESE 23:26:57 10° E visible
